Stations météo

Publicité
Rouen, France (7037): Température de l'air & dewpoint: 11.08.2019 17:00:00 - 17.08.2019 17:00:00 (CEST)Rouen, France (7037): Température de l'air 5cm: 11.08.2019 17:00:00 - 17.08.2019 17:00:00 (CEST)Rouen, France (7037): Température de l'air -20cm & Température de l'air -100cm: 11.08.2019 17:00:00 - 17.08.2019 17:00:00 (CEST)Rouen, France (7037): Vitesse du vent & gusts: 11.08.2019 17:00:00 - 17.08.2019 17:00:00 (CEST)Rouen, France (7037): Direction du vent: 11.08.2019 17:00:00 - 17.08.2019 17:00:00 (CEST)Rouen, France (7037): reduced air pressure: 11.08.2019 17:00:00 - 17.08.2019 17:00:00 (CEST)Rouen, France (7037): visibility: 11.08.2019 17:00:00 - 17.08.2019 17:00:00 (CEST)Rouen, France (7037): Ensoleillement: 11.08.2019 17:00:00 - 17.08.2019 17:00:00 (CEST)Rouen, France (7037): Quantités de précipitations: 11.08.2019 17:00:00 - 17.08.2019 17:00:00 (CEST)
Date & Time tt [°C] td [°C] tt 5cm [°C] tt -20cm [°C] tt -100cm [°C] ff [km/h] ff [knt] fx [km/h] fx [knt] dd ppp [hPa] vv [km] sd [min] rr [mm]
17.08.2019 17:00:00 17,6 16,3 18,1 18,5 17,5 8 4 16 9 WNW 1009,4 12 0 0,0
17.08.2019 16:00:00 17,3 16,7 17,1 18,4 17,5 9 5 22 12 WNW 1009,0 6 0 0,2
17.08.2019 15:00:00 17,3 16,8 17,2 18,4 17,5 12 6 28 15 W 1008,9 5 0 1,4
17.08.2019 14:00:00 19,8 18,5 19,2 18,4 17,5 7 4 24 13 SSW 1008,2 20 0 0,2
17.08.2019 13:00:00 19,6 18,1 19,5 18,3 17,5 8 4 21 12 SSW 1008,5 20 0 0,0
17.08.2019 12:00:00 18,8 18,0 18,1 18,3 17,5 6 3 23 13 SW 1008,8 20 0 0,0
17.08.2019 11:00:00 18,1 17,6 17,8 18,3 17,5 9 5 24 13 S 1008,7 7 0 0,2
17.08.2019 10:00:00 18,1 17,1 17,1 18,4 17,5 8 4 20 11 SSW 1008,8 6 0 0,0
17.08.2019 09:00:00 17,7 16,7 17,1 18,4 17,5 7 4 24 13 SSW 1009,0 15 0 0,2
17.08.2019 08:00:00 17,4 15,9 16,9 18,5 17,5 8 4 28 15 S 1008,6 20 0 0,0
17.08.2019 07:00:00 17,1 15,4 16,7 18,5 17,6 9 5 26 14 S 1008,7 20 0 0,0
17.08.2019 06:00:00 17,1 15,1 16,7 18,6 17,5 8 5 24 13 S 1008,9 20 0 0,0
17.08.2019 05:00:00 16,9 14,9 16,4 18,6 17,5 9 5 23 12 S 1009,0 20 0 0,0
17.08.2019 04:00:00 17,1 14,4 16,7 18,7 17,6 10 5 26 14 S 1008,9 20 0 0,0
17.08.2019 03:00:00 17,2 14,1 16,6 18,8 17,5 8 5 25 13 SSW 1009,4 20 0 0,0
17.08.2019 02:00:00 17,0 14,1 16,5 18,9 17,6 10 5 26 14 SSW 1009,9 20 0 0,0
17.08.2019 01:00:00 16,9 14,0 15,3 18,9 17,5 8 4 25 13 SSW 1010,5 20 0 0,0
17.08.2019 00:00:00 16,5 14,3 15,1 18,9 17,6 8 4 22 12 S 1011,0 20 0 0,2
16.08.2019 23:00:00 17,1 13,8 15,3 19,0 17,6 10 5 18 10 S 1011,4 19 0 0,2
16.08.2019 22:00:00 18,3 12,9 16,2 19,0 17,6 8 5 19 11 S 1011,8 20 0 0,0
16.08.2019 21:00:00 18,9 12,2 18,2 19,0 17,5 5 3 16 9 S 1011,9 20 0 0,0
16.08.2019 20:00:00 19,9 11,9 19,7 18,9 17,6 6 3 24 13 SW 1012,0 20 0 0,0
16.08.2019 19:00:00 20,3 12,0 20,7 18,8 17,6 7 4 26 14 SSW 1012,5 20 0 0,0
16.08.2019 18:00:00 20,9 11,8 22,1 18,7 17,5 10 5 29 15 SSW 1012,8 20 0 0,0
16.08.2019 17:00:00 21,0 12,2 22,6 18,6 17,5 8 4 28 15 SW 1013,8 20 1 0,0
16.08.2019 16:00:00 21,9 12,2 23,5 18,4 17,6 9 5 41 22 SW 1014,1 20 6 0,0
16.08.2019 15:00:00 22,3 12,3 24,2 18,2 17,5 10 5 31 17 SSW 1014,7 20 5 0,0
16.08.2019 14:00:00 22,5 12,1 23,6 18,1 17,6 11 6 34 19 S 1015,3 20 14 0,0
16.08.2019 13:00:00 21,3 13,2 22,0 17,9 17,6 7 4 27 15 SW 1016,2 20 5 0,0
16.08.2019 12:00:00 21,0 13,4 22,6 17,9 17,6 17 9 33 18 S 1016,4 20 55 0,0
16.08.2019 11:00:00 19,0 13,8 19,4 17,9 17,6 10 6 24 13 SSE 1017,3 20 60 0,0
16.08.2019 10:00:00 16,3 13,6 16,1 17,9 17,6 11 6 16 8 SSE 1018,0 20 34 0,0
16.08.2019 09:00:00 13,7 13,4 13,2 18,0 17,6 6 3 13 7 SSE 1018,7 17 1 0,0
16.08.2019 08:00:00 13,0 13,0 11,7 18,1 17,6 6 4 13 7 SSE 1018,6 12 0 0,0
16.08.2019 07:00:00 11,9 11,7 9,4 18,2 17,6 6 3 10 5 S 1019,1 7 0 0,0
16.08.2019 06:00:00 11,6 10,8 8,9 18,3 17,6 0 0 6 4 N 1019,4 4,7 0 0,0
16.08.2019 05:00:00 12,9 12,1 11,9 18,4 17,6 4 2 9 5 S 1019,7 13 0 0,0
16.08.2019 04:00:00 13,6 13,0 12,3 18,5 17,6 2 1 9 5 WSW 1020,0 19 0 0,0
16.08.2019 03:00:00 13,9 12,9 11,7 18,6 17,6 0 0 10 6 N 1020,1 20 0 0,0
16.08.2019 02:00:00 14,2 12,8 12,7 18,7 17,6 5 3 15 8 WSW 1019,9 20 0 0,0
16.08.2019 01:00:00 15,1 13,3 13,4 18,8 17,6 4 2 10 6 WSW 1020,0 20 0 0,0
16.08.2019 00:00:00 14,7 13,1 12,8 18,9 17,7 4 2 14 8 WSW 1020,1 20 0 0,0
15.08.2019 23:00:00 15,4 13,4 13,5 18,9 17,6 4 2 21 11 W 1019,7 20 0 0,0
15.08.2019 22:00:00 16,9 13,4 15,9 18,9 17,6 10 5 22 12 W 1019,6 16 0 0,0
15.08.2019 21:00:00 17,4 13,1 16,8 18,9 17,6 7 4 32 18 W 1019,2 20 0 0,0
15.08.2019 20:00:00 18,7 12,9 18,8 18,9 17,7 19 10 35 19 W 1018,6 20 14 0,0
15.08.2019 19:00:00 19,1 13,5 19,6 18,8 17,6 17 9 46 25 W 1017,8 20 6 0,0
15.08.2019 18:00:00 21,1 12,8 20,9 18,6 17,7 20 11 52 28 W 1017,4 20 29 0,0
15.08.2019 17:00:00 20,5 12,5 22,1 18,4 17,7 20 11 48 26 WNW 1017,0 20 30 0,0
15.08.2019 16:00:00 21,0 13,2 22,1 18,3 17,7 21 11 50 27 WNW 1016,6 20 25 0,0
15.08.2019 15:00:00 19,9 14,3 19,9 18,1 17,7 21 11 46 25 W 1016,2 20 31 0,0
15.08.2019 14:00:00 18,6 14,7 17,6 18,1 17,7 16 9 42 23 W 1016,2 13 16 0,0
15.08.2019 13:00:00 18,6 13,7 17,3 18,1 17,7 19 10 42 23 W 1015,8 20 8 0,0
15.08.2019 12:00:00 17,6 15,2 16,5 18,0 17,7 16 9 35 19 W 1015,4 20 0 0,0
15.08.2019 11:00:00 16,8 15,0 15,4 18,0 17,7 14 8 36 19 W 1015,1 20 0 0,2
15.08.2019 10:00:00 16,5 14,9 15,6 18,1 17,7 13 7 28 15 W 1014,6 19 0 0,0
15.08.2019 09:00:00 15,9 14,6 15,6 18,1 17,7 12 6 28 15 W 1014,2 18 0 0,0
15.08.2019 08:00:00 15,4 14,3 14,8 18,2 17,7 12 7 27 15 W 1013,5 19 0 0,0
15.08.2019 07:00:00 15,5 14,0 14,7 18,3 17,7 12 6 33 18 W 1013,0 20 0 0,0
15.08.2019 06:00:00 15,5 14,5 14,8 18,3 17,7 14 8 31 17 W 1012,6 19 0 0,0
15.08.2019 05:00:00 15,7 15,1 15,2 18,3 17,7 11 6 31 17 WSW 1012,3 20 0 0,2
15.08.2019 04:00:00 16,2 15,1 15,6 18,4 17,8 10 6 31 17 WSW 1012,4 20 0 0,0
15.08.2019 03:00:00 16,3 15,2 15,6 18,4 17,7 13 7 27 15 WSW 1012,5 20 0 0,0
15.08.2019 02:00:00 16,2 15,2 15,6 18,5 17,7 9 5 24 13 WSW 1012,8 20 0 0,0
15.08.2019 01:00:00 16,2 15,7 15,7 18,5 17,8 4 2 17 9 S 1012,8 20 0 0,0
15.08.2019 00:00:00 16,2 15,4 15,6 18,6 17,8 5 3 24 13 SSW 1012,9 18 0 1,0
14.08.2019 23:00:00 16,9 14,7 16,3 18,6 17,7 8 4 27 15 S 1012,9 - 0 0,0
14.08.2019 22:00:00 17,4 14,1 15,4 18,6 17,8 10 5 31 17 SSW 1013,0 19 0 0,0
14.08.2019 21:00:00 16,4 14,6 15,3 18,6 17,8 10 5 21 11 S 1013,1 17 0 0,0
14.08.2019 20:00:00 16,4 14,4 15,4 18,6 17,8 7 4 33 18 SSW 1013,7 13 0 0,4
14.08.2019 19:00:00 18,3 12,9 16,2 18,4 17,8 7 4 34 18 SSW 1013,8 16 0 0,0
14.08.2019 18:00:00 19,0 12,7 18,0 18,3 17,8 11 6 41 22 SSW 1014,1 19 0 0,0
14.08.2019 17:00:00 20,2 12,7 18,6 18,1 17,8 8 4 30 16 SSW 1014,5 19 0 0,2
14.08.2019 16:00:00 20,9 11,2 22,0 17,9 17,8 9 5 30 16 SSW 1015,1 9 16 0,0
14.08.2019 15:00:00 21,9 11,6 24,2 17,7 17,8 11 6 35 19 SW 1015,7 13 1 0,0
14.08.2019 14:00:00 21,7 12,0 23,3 17,5 17,8 9 5 29 16 SW 1016,2 20 11 0,0
14.08.2019 13:00:00 20,6 13,3 20,8 17,4 17,8 13 7 30 16 S 1016,9 20 14 0,0
14.08.2019 12:00:00 19,7 14,3 20,2 17,3 17,8 12 7 26 14 SSE 1017,4 20 23 0,0
14.08.2019 11:00:00 16,8 14,1 17,3 17,3 17,8 12 6 21 11 S 1018,3 20 14 0,0
14.08.2019 10:00:00 14,2 14,2 14,4 17,4 17,8 9 5 16 9 SE 1018,8 6 1 0,0
14.08.2019 09:00:00 13,0 13,0 12,1 17,5 17,8 8 4 11 6 SSE 1019,2 1,0 0 0,0
14.08.2019 08:00:00 11,8 11,8 8,6 17,6 17,9 5 3 9 5 SSE 1019,2 0,3 0 0,0
14.08.2019 07:00:00 10,4 10,4 7,2 17,7 17,9 2 1 7 4 S 1019,5 0,4 0 0,0
14.08.2019 06:00:00 11,0 10,8 9,4 17,8 17,9 4 2 7 4 SE 1019,2 0,2 0 0,0
14.08.2019 05:00:00 11,1 11,1 6,9 17,9 17,9 2 1 6 3 S 1019,5 1,1 0 0,0
14.08.2019 04:00:00 10,6 10,4 6,7 18,0 17,9 0 0 6 3 N 1019,7 0,9 0 0,0
14.08.2019 03:00:00 11,0 10,7 7,3 18,1 17,9 0 0 4 2 N 1019,9 1,7 0 0,0
14.08.2019 02:00:00 11,8 11,8 7,9 18,2 17,9 0 0 5 3 N 1020,1 15 0 0,0
14.08.2019 01:00:00 11,5 11,0 8,0 18,3 17,9 0 0 6 4 N 1020,4 13 0 0,0
14.08.2019 00:00:00 11,9 11,4 8,8 18,4 17,9 3 2 7 4 WSW 1020,5 16 0 0,0
13.08.2019 23:00:00 13,3 12,8 11,7 18,4 17,9 4 2 6 3 SSE 1020,6 18 0 0,0
13.08.2019 22:00:00 13,9 13,1 13,4 18,4 17,9 2 1 8 4 SSW 1020,4 19 0 0,0
13.08.2019 21:00:00 14,4 13,1 14,2 18,4 17,9 4 2 21 11 WSW 1020,2 20 0 0,0
13.08.2019 20:00:00 16,0 12,4 16,2 18,3 17,9 9 5 23 12 WSW 1019,8 20 0 0,0
13.08.2019 19:00:00 16,1 12,5 15,2 18,2 17,9 9 5 27 15 WSW 1019,9 20 0 0,2
13.08.2019 18:00:00 17,0 11,9 18,5 18,1 17,9 11 6 31 17 WSW 1019,9 20 0 0,0
13.08.2019 17:00:00 17,4 12,5 19,6 17,9 17,9 13 7 29 16 WSW 1019,8 20 3 0,0
13.08.2019 16:00:00 17,1 14,4 15,3 17,8 17,9 9 5 17 9 W 1020,1 20 7 0,2
13.08.2019 15:00:00 16,1 13,8 16,2 17,7 17,9 7 4 20 11 WNW 1020,5 20 3 0,0
13.08.2019 14:00:00 14,8 13,7 13,6 17,6 17,9 10 6 34 18 W 1020,9 11 0 2,9
13.08.2019 13:00:00 18,0 12,0 16,4 17,5 17,9 11 6 31 17 WSW 1020,4 20 2 0,0
13.08.2019 12:00:00 16,8 12,1 18,0 17,4 17,9 7 4 24 13 WSW 1020,6 20 5 0,0
13.08.2019 11:00:00 16,2 12,2 17,4 17,4 17,9 6 4 25 13 SSW 1020,7 20 30 0,0
13.08.2019 10:00:00 15,0 11,9 16,7 17,5 17,9 7 4 21 11 SSW 1021,1 20 42 0,0
13.08.2019 09:00:00 13,3 11,7 10,9 17,7 17,9 3 1 11 6 SW 1021,0 20 53 0,0
13.08.2019 08:00:00 10,6 10,4 4,6 17,8 18,0 3 1 4 2 S 1020,8 16 24 0,2
13.08.2019 07:00:00 8,8 8,5 4,1 18,0 18,0 3 1 7 4 S 1020,8 10 0 0,0
13.08.2019 06:00:00 9,5 8,7 5,9 18,1 18,0 4 2 14 7 WSW 1020,3 17 0 0,0
13.08.2019 05:00:00 10,5 9,6 8,3 18,3 18,0 6 3 16 8 W 1020,2 20 0 0,0
13.08.2019 04:00:00 11,1 10,2 9,1 18,4 18,0 9 5 17 9 W 1020,2 15 0 0,0
13.08.2019 03:00:00 10,7 10,2 6,6 18,6 18,0 8 4 18 10 W 1020,3 20 0 0,0
13.08.2019 02:00:00 10,1 9,6 5,9 18,7 18,0 5 3 11 6 W 1020,4 20 0 0,0
13.08.2019 01:00:00 10,1 9,3 6,1 18,8 18,0 3 2 11 6 WSW 1020,4 14 0 0,2
13.08.2019 00:00:00 11,6 10,3 8,6 18,9 18,0 6 3 16 8 W 1020,1 19 0 0,0
12.08.2019 23:00:00 11,7 10,8 9,1 19,0 18,0 6 3 13 7 W 1019,6 20 0 0,0
12.08.2019 22:00:00 12,9 11,6 10,4 19,1 18,0 8 4 14 8 W 1019,0 18 0 0,0
12.08.2019 21:00:00 14,3 11,4 13,6 19,0 18,0 9 5 25 13 WNW 1018,2 20 17 0,0
12.08.2019 20:00:00 15,4 12,7 14,2 19,0 18,0 16 8 37 20 W 1017,3 20 3 0,0
12.08.2019 19:00:00 15,3 11,7 13,7 18,9 18,0 17 9 33 18 W 1016,6 14 12 0,2
12.08.2019 18:00:00 15,0 13,2 13,6 18,8 18,0 10 5 24 13 W 1016,4 11 18 1,4
12.08.2019 17:00:00 17,4 13,3 13,7 18,8 18,0 9 5 28 15 WSW 1015,8 20 45 0,6
12.08.2019 16:00:00 15,3 12,8 12,9 18,7 18,0 12 7 23 12 W 1016,3 20 5 5,5
12.08.2019 15:00:00 15,3 11,5 13,5 18,6 18,0 12 7 33 18 W 1016,2 17 4 0,8
12.08.2019 14:00:00 18,4 10,5 17,9 18,4 18,0 13 7 33 18 WNW 1015,6 20 20 0,0
12.08.2019 13:00:00 19,5 10,8 21,7 18,3 18,0 8 4 24 13 WSW 1015,3 20 19 0,0
12.08.2019 12:00:00 18,8 11,1 21,0 18,2 18,0 9 5 21 11 WSW 1015,9 20 23 0,0
12.08.2019 11:00:00 18,6 11,9 21,8 18,2 18,0 8 4 25 13 WSW 1016,2 20 37 0,0
12.08.2019 10:00:00 17,7 13,0 19,5 18,3 18,0 6 3 16 8 SSW 1016,2 20 60 0,0
12.08.2019 09:00:00 15,0 13,0 12,5 18,4 18,0 6 3 14 8 SSW 1016,0 20 60 0,0
12.08.2019 08:00:00 12,1 12,1 6,4 18,6 18,0 2 1 7 4 S 1016,1 19 19 0,0
12.08.2019 07:00:00 9,8 9,7 5,0 18,7 18,0 0 0 7 4 N 1016,3 13 0 0,0
12.08.2019 06:00:00 9,8 9,3 4,9 18,9 18,0 0 0 7 4 N 1016,2 10 0 0,0
12.08.2019 05:00:00 10,6 10,3 5,9 19,0 18,0 5 3 10 5 S 1016,2 14 0 0,0
12.08.2019 04:00:00 10,5 10,2 6,0 19,1 18,0 2 1 5 3 WSW 1016,5 17 0 0,0
12.08.2019 03:00:00 11,1 10,6 6,7 19,3 18,1 3 1 7 4 SSE 1016,7 19 0 0,0
12.08.2019 02:00:00 12,2 11,3 8,2 19,4 18,0 0 0 5 3 N 1016,7 19 0 0,0
12.08.2019 01:00:00 13,3 12,4 9,1 19,5 18,0 0 0 6 4 N 1016,9 20 0 0,0
12.08.2019 00:00:00 13,3 11,5 9,4 19,6 18,0 0 0 9 5 N 1016,8 20 0 0,0
11.08.2019 23:00:00 15,4 12,5 14,3 19,6 18,0 5 3 29 16 WNW 1016,5 19 0 0,0
11.08.2019 22:00:00 17,8 11,6 14,0 19,6 18,0 4 2 16 9 W 1015,9 20 0 0,0
11.08.2019 21:00:00 18,2 10,3 15,9 19,6 18,0 3 1 19 10 W 1015,2 20 17 0,0
11.08.2019 20:00:00 21,2 9,7 21,5 19,5 18,0 9 5 27 15 WSW 1014,8 19 54 0,0
11.08.2019 19:00:00 20,8 9,4 21,6 19,3 18,0 9 5 26 14 W 1014,5 20 26 0,0
11.08.2019 18:00:00 22,5 9,3 23,2 19,2 18,0 9 5 27 15 SW 1014,0 20 42 0,0
11.08.2019 17:00:00 22,6 9,4 23,4 19,0 18,1 10 5 28 15 WSW 1014,1 20 45 0,0

tt = Température de l'air
td = dewpoint
tt 5cm = Température de l'air 5cm
tt -20cm = Température de l'air -20cm
tt -100cm = Température de l'air -100cm
ff = Vitesse du vent
fx = gusts
dd = Direction du vent
ppp = reduced air pressure
vv = visibility
sd = Ensoleillement
rr = Quantités de précipitations

stations d'obs. à proximité